Date String (YYYY-MM-DD hh:mm:ss) UTC,Instrument flags,Ambient pressure (hPa),Sample flow (lpm),Bypass flow (lpm),Sample temperature (°C),Ambient temperature (°C),ASC tube jacket temperature (°C),LED temperature (°C),Box temperature (°C),Sample RH (%),Span deviation,Mass concentration (μg/m³),Mass concentration (μg/m³),Mass concentration (μg/m³)
DateTimeUTC,F1_M11,P_M11,Q1_M11,Q2_M11,T1_M11,T2_M11,T3_M11,T4_M11,T5_M11,U1_M11,ZSPAN_M11,X0_M11,X2_M11,X1_M11
2022-10-20 00:00:00,,0830.5,5.00,0.00,29.8,28.7,00.0,38.5,31.8,08.5,0000.0,0010.08,0002.46,0001.14
2022-10-20 00:01:00,,0830.5,4.99,0.00,29.9,28.0,00.0,38.5,31.8,08.5,0000.0,0010.92,0002.39,0001.13
2022-10-20 00:02:00,,0830.4,5.00,0.00,29.8,26.8,00.0,38.5,31.7,08.4,0000.0,0011.21,0002.45,0001.14
2022-10-20 00:03:00,,0830.5,5.01,0.00,29.8,26.6,00.0,38.4,31.6,08.4,0000.0,0011.45,0002.36,0001.13
2022-10-20 00:04:00,,0830.4,5.01,0.00,29.7,26.8,00.0,38.4,31.4,08.5,0000.0,0011.53,0002.38,0001.13
2022-10-20 00:05:00,,0830.5,5.00,0.00,29.7,27.1,00.0,38.4,31.4,08.4,0000.0,0011.42,0002.30,0001.12
2022-10-20 00:06:00,,0830.5,4.99,0.00,29.7,27.5,00.0,38.4,31.5,08.4,0000.0,0011.59,0002.24,0001.12
2022-10-20 00:07:00,,0830.5,5.00,0.00,29.7,27.7,00.0,38.4,31.5,08.4,0000.0,0011.56,0002.24,0001.10
2022-10-20 00:08:00,,0830.5,5.00,0.00,29.7,28.0,00.0,38.4,31.6,08.3,0000.0,0011.62,0002.27,0001.11
2022-10-20 00:09:00,,0830.5,5.00,0.00,29.7,28.1,00.0,38.4,31.6,08.3,0000.0,0011.68,0002.32,0001.12
2022-10-20 00:10:00,,0830.5,5.00,0.00,29.7,28.3,00.0,38.5,31.7,08.3,0000.0,0011.77,0002.40,0001.13
2022-10-20 00:11:00,,0830.5,5.00,0.00,29.7,28.4,00.0,38.5,31.7,08.3,0000.0,0012.55,0002.49,0001.14
2022-10-20 00:12:00,,0830.6,4.99,0.00,29.7,28.5,00.0,38.5,31.7,08.3,0000.0,0011.96,0002.54,0001.14
2022-10-20 00:13:00,,0830.6,5.00,0.00,29.8,28.6,00.0,38.5,31.8,08.3,0000.0,0011.05,0002.49,0001.13
2022-10-20 00:14:00,,0830.6,5.00,0.00,29.8,28.7,00.0,38.5,31.8,08.2,0000.0,0010.47,0002.54,0001.13
2022-10-20 00:15:00,,0830.6,5.00,0.00,29.8,28.8,00.0,38.5,31.8,08.2,0000.0,0010.02,0002.58,0001.13
2022-10-20 00:16:00,,0830.6,5.00,0.00,29.9,28.8,00.0,38.6,31.9,08.1,0000.0,0010.17,0002.65,0001.13
2022-10-20 00:17:00,,0830.5,4.99,0.00,29.9,28.1,00.0,38.6,31.8,08.2,0000.0,0009.90,0002.69,0001.14
2022-10-20 00:18:00,,0830.5,5.00,0.00,29.9,26.8,00.0,38.5,31.7,08.4,0000.0,0010.03,0002.70,0001.15
2022-10-20 00:19:00,,0830.6,5.01,0.00,29.8,26.6,00.0,38.4,31.6,08.5,0000.0,0011.35,0002.79,0001.14
2022-10-20 00:20:00,,0830.5,5.01,0.00,29.7,26.8,00.0,38.4,31.4,08.7,0000.0,0012.10,0002.85,0001.13
2022-10-20 00:21:00,,0830.5,4.99,0.00,29.7,27.1,00.0,38.4,31.4,08.6,0000.0,0012.36,0002.85,0001.14
2022-10-20 00:22:00,,0830.6,5.00,0.00,29.7,27.4,00.0,38.4,31.5,08.6,0000.0,0012.36,0002.81,0001.14
2022-10-20 00:23:00,,0830.6,5.01,0.00,29.7,27.6,00.0,38.4,31.5,08.6,0000.0,0012.17,0002.83,0001.14
2022-10-20 00:24:00,,0830.6,5.01,0.00,29.7,27.8,00.0,38.4,31.6,08.6,0000.0,0012.83,0002.90,0001.15
2022-10-20 00:25:00,,0830.6,4.99,0.00,29.7,28.0,00.0,38.4,31.6,08.6,0000.0,0014.14,0002.92,0001.15
2022-10-20 00:26:00,,0830.6,4.99,0.00,29.7,28.2,00.0,38.5,31.6,08.6,0000.0,0014.35,0002.90,0001.16
2022-10-20 00:27:00,,0830.6,4.99,0.00,29.7,28.3,00.0,38.5,31.7,08.6,0000.0,0014.60,0002.89,0001.17
2022-10-20 00:28:00,,0830.6,5.01,0.00,29.7,28.4,00.0,38.5,31.7,08.5,0000.0,0015.70,0002.88,0001.17
2022-10-20 00:29:00,,0830.6,5.01,0.00,29.7,28.5,00.0,38.5,31.7,08.5,0000.0,0015.50,0002.91,0001.17
2022-10-20 00:30:00,,0830.6,5.00,0.00,29.8,28.6,00.0,38.5,31.7,08.5,0000.0,0013.94,0002.87,0001.17
2022-10-20 00:31:00,,0830.6,5.00,0.00,29.8,28.6,00.0,38.5,31.7,08.5,0000.0,0013.63,0002.89,0001.19
2022-10-20 00:32:00,,0830.6,5.00,0.00,29.8,28.7,00.0,38.5,31.8,08.5,0000.0,0013.79,0002.94,0001.19
2022-10-20 00:33:00,,0830.7,4.99,0.00,29.8,28.7,00.0,38.6,31.8,08.5,0000.0,0013.70,0003.05,0001.20
2022-10-20 00:34:00,,0830.7,5.00,0.00,29.9,28.8,00.0,38.6,31.9,08.4,0000.0,0015.30,0003.14,0001.21
2022-10-20 00:35:00,,0830.7,5.00,0.00,29.9,28.7,00.0,38.6,31.9,08.5,0000.0,0016.16,0003.18,0001.22
2022-10-20 00:36:00,,0830.7,4.99,0.00,29.9,27.5,00.0,38.6,31.8,08.5,0000.0,0015.35,0003.17,0001.24
2022-10-20 00:37:00,,0830.7,5.00,0.00,29.8,26.5,00.0,38.5,31.7,08.5,0000.0,0015.29,0003.17,0001.24
2022-10-20 00:38:00,,0830.7,5.00,0.00,29.8,26.5,00.0,38.5,31.5,08.3,0000.0,0015.04,0003.16,0001.24
2022-10-20 00:39:00,,0830.8,5.01,0.00,29.7,26.8,00.0,38.4,31.4,08.4,0000.0,0014.05,0003.18,0001.24
2022-10-20 00:40:00,,0830.8,5.01,0.00,29.7,27.1,00.0,38.4,31.4,08.5,0000.0,0013.82,0003.15,0001.24
2022-10-20 00:41:00,,0830.8,4.99,0.00,29.6,27.4,00.0,38.4,31.4,08.5,0000.0,0014.75,0003.13,0001.23
2022-10-20 00:42:00,,0830.8,5.00,0.00,29.6,27.6,00.0,38.4,31.5,08.5,0000.0,0014.97,0003.09,0001.23
2022-10-20 00:43:00,,0830.8,5.00,0.00,29.6,27.8,00.0,38.4,31.5,08.5,0000.0,0015.52,0003.06,0001.22
2022-10-20 00:44:00,,0830.7,5.00,0.00,29.6,28.0,00.0,38.4,31.5,08.5,0000.0,0015.43,0002.95,0001.21
2022-10-20 00:45:00,,0830.8,5.01,0.00,29.6,28.1,00.0,38.4,31.6,08.5,0000.0,0013.73,0002.78,0001.21
2022-10-20 00:46:00,,0830.8,5.01,0.00,29.7,28.2,00.0,38.4,31.6,08.5,0000.0,0012.80,0002.72,0001.21
2022-10-20 00:47:00,,0830.9,5.00,0.00,29.7,28.3,00.0,38.5,31.6,08.5,0000.0,0012.47,0002.67,0001.19
2022-10-20 00:48:00,,0830.9,4.99,0.00,29.7,28.4,00.0,38.5,31.7,08.5,0000.0,0013.36,0002.60,0001.19
2022-10-20 00:49:00,,0830.9,5.00,0.00,29.7,28.5,00.0,38.5,31.7,08.5,0000.0,0013.86,0002.64,0001.18
2022-10-20 00:50:00,,0830.9,5.00,0.00,29.7,28.5,00.0,38.5,31.7,08.5,0000.0,0013.67,0002.70,0001.19
2022-10-20 00:51:00,,0830.9,5.00,0.00,29.8,28.6,00.0,38.5,31.7,08.5,0000.0,0013.78,0002.69,0001.19
2022-10-20 00:52:00,,0830.9,5.00,0.00,29.8,28.6,00.0,38.5,31.7,08.4,0000.0,0013.17,0002.65,0001.20
2022-10-20 00:53:00,,0831.0,5.00,0.00,29.8,28.7,00.0,38.5,31.7,08.4,0000.0,0012.10,0002.59,0001.21
2022-10-20 00:54:00,,0831.0,5.01,0.00,29.8,28.7,00.0,38.6,31.8,08.4,0000.0,0011.23,0002.48,0001.20
2022-10-20 00:55:00,,0831.0,5.00,0.00,29.9,28.7,00.0,38.6,31.9,08.4,0000.0,0011.44,0002.53,0001.20
2022-10-20 00:56:00,,0831.0,5.00,0.00,29.9,28.8,00.0,38.6,31.9,08.4,0000.0,0012.81,0002.60,0001.21
2022-10-20 00:57:00,,0831.0,5.00,0.00,29.9,28.6,00.0,38.6,31.9,08.3,0000.0,0012.58,0002.57,0001.21
